Location: Namasale
(1.5000°N, 32.6167°E)
Time: 02:53:45
(UTC+00:00)

Hubble Space Telescope - Pass Details

Date: 11 December 2021
Orbit: 535 x 538 km, 28.5° (Epoch: 24 January)

Event Time Altitude Azimuth Distance (km) Brightness Sun altitude
Exits shadow 02:20:05 45° 337° (NNW) 724 1.0 -19.6°
Maximum altitude 02:21:03 60° 30° (NNE) 608 1.0 -19.3°
Drops below altitude 10° 02:25:05 10° 110° (ESE) 1,773 4.7 -18.4°
Sets 02:27:22 0° 114° (ESE) 2,664 6.1 -17.9°
